Weather History for KLBF - March, 2012

Change the Weather History Date:

Thursday, March 29, 2012

  Actual Average Record
Temperature  
Mean Temperature 54 °F 42 °F  
Max Temperature 72 °F 57 °F 86 °F (1943)
Min Temperature 36 °F 27 °F -8 °F (1886)
Degree Days  
Heating Degree Days 11 23  
Month to date heating degree days 457 791  
Since 1 July heating degree days 5172 5819  
Cooling Degree Days 0 0  
Month to date cooling degree days 7 0  
Year to date cooling degree days 7 0  
Growing Degree Days 6 (Base 50)    
Moisture  
Dew Point 43 °F    
Average Humidity 64    
Maximum Humidity 92    
Minimum Humidity 35    
Precipitation  
Precipitation 0.00 in 0.05 in 1.16 in (1891)
Month to date precipitation 0.82 0.96  
Year to date precipitation 2.17 1.80  
Snow  
Snow 0.00 in 0.10 in 12.00 in (1891)
Month to date snowfall T 4.1  
Since 1 July snowfall 15.6 25.0  
Snow Depth 0.00 in    
Sea Level Pressure  
Sea Level Pressure 29.80 in    
Wind  
Wind Speed 9 mph (NNE)    
Max Wind Speed 28 mph    
Max Gust Speed 36 mph    
Visibility 9 miles    
Events      
T = Trace of Precipitation, MM = Missing Value Source: NWS Daily Summary

Daily Weather History Graph

Daily Weather History Graph

Search for Another Location

Airport or City:

Trip Planner

Search our weather history database for the weather conditions in past years. The results will help you decide how hot, cold, wet, or windy it might be!

Date:

Astronomy

Mar. 29, 2012 Rise Set
Actual Time 7:30 AM CDT 8:05 PM CDT
Civil Twilight 7:02 AM CDT 8:32 PM CDT
Nautical Twilight 6:29 AM CDT 9:05 PM CDT
Astronomical Twilight 5:56 AM CDT 9:39 PM CDT
Moon 11:37 AM CDT (3/29) 2:00 AM CDT (3/29)
Length of Visible Light 13h 30m
Length of Day
12h 35m
Waxing Crescent, 39% of the Moon is Illuminated
Mar 29
Waxing Crescent
Mar 30
First Quarter
Apr 6
Full
Apr 13
Last Quarter
Apr 21
New

Hourly Weather History & Observations

Time (CDT) Temp. Windchill Dew Point Humidity Pressure Visibility Wind Dir Wind Speed Gust Speed Precip Events Conditions
12:53 AM 48.9 °F - 45.0 °F 86% 29.80 in 8.0 mi East 9.2 mph - N/A   Clear
1:53 AM 46.0 °F 42.5 °F 42.1 °F 86% 29.79 in 10.0 mi ESE 6.9 mph - N/A   Clear
2:53 AM 45.0 °F 40.1 °F 39.9 °F 82% 29.77 in 10.0 mi ESE 9.2 mph - N/A   Clear
3:53 AM 43.0 °F 38.2 °F 37.9 °F 82% 29.76 in 10.0 mi ESE 8.1 mph - N/A   Clear
4:53 AM 41.0 °F 37.1 °F 37.0 °F 86% 29.75 in 10.0 mi East 5.8 mph - N/A   Clear
5:53 AM 42.1 °F 40.2 °F 37.9 °F 85% 29.74 in 10.0 mi SSE 3.5 mph - N/A   Clear
6:53 AM 39.9 °F - 37.9 °F 93% 29.76 in 10.0 mi Calm Calm - N/A   Clear
7:53 AM 39.0 °F 34.8 °F 37.0 °F 93% 29.79 in 6.0 mi WNW 5.8 mph - N/A   Clear
8:06 AM 39.2 °F 35.0 °F 39.2 °F 100% 29.81 in 6.0 mi WNW 5.8 mph - N/A   Scattered Clouds
8:17 AM 44.6 °F 40.2 °F 42.8 °F 93% 29.82 in 7.0 mi WNW 8.1 mph - N/A   Mostly Cloudy
8:53 AM 48.0 °F - 44.1 °F 86% 29.81 in 7.0 mi NW 4.6 mph - N/A   Overcast
9:53 AM 55.0 °F - 51.1 °F 86% 29.81 in 6.0 mi NW 5.8 mph - N/A   Overcast
10:29 AM 59.0 °F - 51.8 °F 77% 29.81 in 8.0 mi Calm Calm - N/A   Overcast
10:53 AM 60.1 °F - 54.0 °F 80% 29.79 in 8.0 mi East 4.6 mph - N/A   Overcast
11:43 AM 62.6 °F - 53.6 °F 72% 29.83 in 8.0 mi Calm Calm - N/A   Overcast
11:53 AM 62.1 °F - 55.0 °F 78% 29.81 in 8.0 mi West 8.1 mph - N/A   Overcast
12:53 PM 68.0 °F - 54.0 °F 61% 29.78 in 10.0 mi North 26.5 mph 29.9 mph N/A   Overcast
1:22 PM 66.2 °F - 50.0 °F 56% 29.82 in 10.0 mi North 18.4 mph 27.6 mph N/A   Mostly Cloudy
1:53 PM 70.0 °F - 46.9 °F 44% 29.79 in 10.0 mi North 18.4 mph 28.8 mph N/A   Clear
2:53 PM 72.0 °F - 46.0 °F 40% 29.78 in 10.0 mi North 15.0 mph - N/A   Clear
3:53 PM 71.1 °F - 42.1 °F 35% 29.77 in 10.0 mi NNW 13.8 mph 24.2 mph N/A   Clear
4:53 PM 66.0 °F - 41.0 °F 40% 29.79 in 10.0 mi North 15.0 mph 19.6 mph N/A   Clear
5:53 PM 69.1 °F - 41.0 °F 36% 29.78 in 10.0 mi North 16.1 mph 19.6 mph N/A   Clear
6:53 PM 66.0 °F - 39.0 °F 37% 29.80 in 10.0 mi North 12.7 mph - N/A   Clear
7:53 PM 59.0 °F - 39.0 °F 48% 29.82 in 10.0 mi North 8.1 mph - N/A   Clear
8:53 PM 52.0 °F - 37.0 °F 57% 29.82 in 10.0 mi NE 6.9 mph - N/A   Clear
9:53 PM 46.9 °F - 37.0 °F 68% 29.84 in 10.0 mi Calm Calm - N/A   Clear
10:53 PM 42.1 °F 40.2 °F 36.0 °F 79% 29.83 in 10.0 mi East 3.5 mph - N/A   Clear
11:53 PM 39.9 °F 35.8 °F 34.0 °F 79% 29.79 in 10.0 mi NNE 5.8 mph - N/A   Clear